Weather Roundup
Issued by NWS

Home | Current Version | Previous Version | Text Only | Print | Product List | Glossary On
Versions: 1 2 3 4 5 6 7 8 9 10 11 12 13 14 15 16 17 18 19 20 21 22 23 24 25 26 27 28 29 30 31 32 33 34 35 36 37 38 39 40 41 42 43 44 45 46 47 48 49 50
736
NZUS93 KARX 301310
HRRWXR

CURRENT HOURLY OBSERVATIONS ACROSS
MUCH OF THE UPPER MISSISSIPPI VALLEY
NATIONAL WEATHER SERVICE LA CROSSE WI
800 AM CDT MON MAY 30 2016


...SOUTHEAST MINNESOTA...


CITY           SKY/WX    TMP DP  RH WIND       PRES   REMARKS
ROCHESTER      CLOUDY    64  59  83 SW5       30.05R
ROCHESTER/MAYO FAIR      61  58  88 CALM      30.05R
WINONA         MOSUNNY   59  59 100 CALM      30.04R
AUSTIN         CLOUDY    63  57  82 CALM      30.06S
ALBERT LEA     CLOUDY    64  57  77 CALM      30.05F
DODGE CENTER   MOSUNNY   64  61  88 SW6       30.05R
PRESTON        CLOUDY    64  57  77 CALM      30.05S
OWATONNA       PTSUNNY   63  57  82 S5        30.05S
FARIBAULT      CLOUDY    61  59  94 S5        30.04R
$$

...ELSEWHERE IN MINNESOTA...


CITY           SKY/WX    TMP DP  RH WIND       PRES   REMARKS
MINNEAPOLIS    PTSUNNY   65  58  78 SW6       30.02R
INTNL FALLS    SUNNY     56  51  84 W5        29.96S
DULUTH         SUNNY     64  54  69 W13       29.98S
RED WING       CLOUDY    63  61  94 CALM      30.02R
REDWOOD FALLS  MOSUNNY   64  56  75 E3        29.99F
MANKATO        MOSUNNY   63  54  72 S6        30.03F
WORTHINGTON      N/A     61  57  87 SE7       30.02R
FAIRMONT       CLOUDY    63  52  67 NE7       29.99F
$$

...SOUTHWEST WISCONSIN...


CITY           SKY/WX    TMP DP  RH WIND       PRES   REMARKS
LA CROSSE      CLOUDY    62  60  93 S7        30.03R
PRAIRIE DU CHI MOSUNNY   62  59  88 CALM      30.05R
BOSCOBEL       CLOUDY    61  60  97 CALM      30.04S
LONE ROCK      FOG       59  59 100 CALM      30.04S VSB 1/4
PLATTEVILLE    SUNNY     66  62  87 N5        30.05R
FORT MC COY    CLOUDY    61  58  91 CALM      30.04S
CAMP DOUGLAS   CLOUDY    67  67 100 NW3       30.03R
MAUSTON-NEW LI CLOUDY    68  59  73 NW6       30.02R
VIROQUA        FAIR      65  59  80 CALM      30.05R
WIS DELLS      SUNNY     67  58  72 W3        30.03S
$$

...ELSEWHERE IN WISCONSIN...


CITY           SKY/WX    TMP DP  RH WIND       PRES   REMARKS
MILWAUKEE      MOSUNNY   71  59  65 NW7       30.02R
MADISON        MOSUNNY   67  61  81 NW3       30.03R
GREEN BAY      SUNNY     66  59  78 NW7       30.00R
EAU CLAIRE     CLOUDY    63  59  87 CALM      30.01R
BLACK RVR FLS  FAIR      64  61  91 CALM      30.03R
MEDFORD        SUNNY     61  56  84 W5        30.02R
WAUSAU         SUNNY     64  56  75 W3        30.00S
WIS RAPIDS     SUNNY     67  56  67 CALM      30.03S
MARSHFIELD     SUNNY     61  56  83 W5        30.02S
RICE LAKE      SUNNY     60  55  83 CALM      30.04R
$$

...NORTHEAST IOWA...


CITY           SKY/WX    TMP DP  RH WIND       PRES   REMARKS
WATERLOO       MOSUNNY   66  61  84 CALM      30.04R
DUBUQUE        SUNNY     71  59  65 N3        30.06R
DECORAH        CLOUDY    63  61  94 CALM      30.04R
MASON CITY     CLOUDY    61  56  83 W3        30.08R
CHARLES CITY   PTSUNNY   63  59  88 W6        30.09R
OELWEIN        MOSUNNY   66  59  77 CALM      30.06R
$$

...ELSEWHERE IN IOWA...


CITY           SKY/WX    TMP DP  RH WIND       PRES   REMARKS
DES MOINES     MOSUNNY   70  62  76 S7        30.03R
IOWA CITY      CLOUDY    67  62  84 CALM      30.06R
FORT DODGE     PTSUNNY   64  52  63 E9        30.06F
MARSHALLTOWN   SUNNY     70  62  76 E6        30.03R
CEDAR RAPIDS   CLOUDY    69  65  86 CALM      30.04R
$$

...NORTHERN ILLINOIS...


CITY           SKY/WX    TMP DP  RH WIND       PRES   REMARKS
CHICAGO-OHARE  MOSUNNY   72  59  63 CALM      30.02S
CHICAGO-MIDWAY MOSUNNY   73  58  59 CALM      30.02S
MOLINE         MOSUNNY   73  61  65 CALM      30.04R
ROCKFORD       MOSUNNY   70  62  76 CALM      30.05S
PEORIA         SUNNY     70  63  78 S3        30.06R
$$

NOTE: "FAIR" INDICATES FEW OR NO CLOUDS BELOW 12,000 FEET WITH NO
SIGNIFICANT WEATHER AND/OR OBSTRUCTIONS TO VISIBILITY. WIND
SPEEDS ARE IN MILES-PER-HOUR.




USA.gov is the U.S. government's official web portal to all federal, state and local government web resources and services.